| time (UTC) | temp F | wind direction | speed MPH | gust MPH | rain 1hr in | rain 24hr in | rain mn in | humidity % | barometer mb |
| 20260906200105 | 69 | 138 | 3.0 | 6.0 | 0.00 | 0.00 | 0.00 | 65 | 1019.9 |
| 20260906195605 | 69 | 142 | 3.0 | 7.0 | 0.00 | 0.00 | 0.00 | 64 | 1020.0 |
| 20260906195105 | 69 | 143 | 3.0 | 5.0 | 0.00 | 0.00 | 0.00 | 64 | 1020.2 |
| 20260906193605 | 69 | 134 | 3.0 | 6.0 | 0.00 | 0.00 | 0.00 | 63 | 1020.2 |
| 20260906184604 | 71 | 125 | 2.0 | 5.0 | 0.00 | 0.00 | 0.00 | 62 | 1020.4 |
| 20260906184105 | 71 | 126 | 2.0 | 3.0 | 0.00 | 0.00 | 0.00 | 61 | 1020.5 |
| 20260906182106 | 72 | 126 | 2.0 | 3.0 | 0.00 | 0.00 | 0.00 | 60 | 1020.8 |
| 20260906181604 | 72 | 126 | 2.0 | 5.0 | 0.00 | 0.00 | 0.00 | 59 | 1020.7 |
| 20260906181106 | 72 | 125 | 2.0 | 5.0 | 0.00 | 0.00 | 0.00 | 59 | 1020.9 |
| 20260906180104 | 72 | 126 | 2.0 | 3.0 | 0.00 | 0.00 | 0.00 | 58 | 1020.8 |
| 20260906175605 | 72 | 125 | 1.0 | 5.0 | 0.00 | 0.00 | 0.00 | 58 | 1020.8 |
| 20260906175105 | 72 | 125 | 2.0 | 5.0 | 0.00 | 0.00 | 0.00 | 57 | 1020.9 |
| 20260906173605 | 73 | 126 | 3.0 | 6.0 | 0.00 | 0.00 | 0.00 | 56 | 1021.0 |
| 20260906173105 | 73 | 118 | 3.0 | 5.0 | 0.00 | 0.00 | 0.00 | 55 | 1021.0 |
| 20260906172604 | 73 | 113 | 2.0 | 7.0 | 0.00 | 0.00 | 0.00 | 55 | 1021.0 |
| 20260906172105 | 73 | 113 | 3.0 | 7.0 | 0.00 | 0.00 | 0.00 | 54 | 1021.2 |
| 20260906171604 | 74 | 111 | 3.0 | 8.0 | 0.00 | 0.00 | 0.00 | 54 | 1021.4 |
| 20260906171106 | 74 | 123 | 5.0 | 8.0 | 0.00 | 0.00 | 0.00 | 53 | 1021.4 |
| 20260906170106 | 74 | 154 | 3.0 | 7.0 | 0.00 | 0.00 | 0.00 | 53 | 1021.4 |
| 20260906164604 | 74 | 145 | 2.0 | 6.0 | 0.00 | 0.00 | 0.00 | 53 | 1021.5 |
| 20260906164105 | 75 | 146 | 5.0 | 8.0 | 0.00 | 0.00 | 0.00 | 52 | 1021.7 |
| 20260906163604 | 75 | 145 | 3.0 | 8.0 | 0.00 | 0.00 | 0.00 | 53 | 1021.7 |
| 20260906162604 | 74 | 152 | 6.0 | 12.0 | 0.00 | 0.00 | 0.00 | 52 | 1021.5 |
| 20260906162105 | 74 | 101 | 4.0 | 7.0 | 0.00 | 0.00 | 0.00 | 52 | 1021.6 |
| 20260906161605 | 74 | 136 | 3.0 | 9.0 | 0.00 | 0.00 | 0.00 | 53 | 1021.8 |
| 20260906161105 | 74 | 119 | 5.0 | 10.0 | 0.00 | 0.00 | 0.00 | 52 | 1021.8 |
| 20260906151105 | 75 | 171 | 5.0 | 9.0 | 0.00 | 0.00 | 0.00 | 48 | 1022.0 |
| 20260906150105 | 74 | 169 | 6.0 | 12.0 | 0.00 | 0.00 | 0.00 | 49 | 1022.1 |
| 20260906143604 | 74 | 127 | 5.0 | 12.0 | 0.00 | 0.00 | 0.00 | 52 | 1022.5 |
| 20260906143105 | 74 | 120 | 5.0 | 12.0 | 0.00 | 0.00 | 0.00 | 52 | 1022.5 |
| 20260906142604 | 74 | 186 | 5.0 | 8.0 | 0.00 | 0.00 | 0.00 | 50 | 1022.6 |
| 20260906142105 | 74 | 170 | 3.0 | 9.0 | 0.00 | 0.00 | 0.00 | 52 | 1022.6 |
| 20260906140104 | 73 | 225 | 6.0 | 12.0 | 0.00 | 0.00 | 0.00 | 53 | 1023.0 |
| 20260906135603 | 73 | 96 | 7.0 | 14.0 | 0.00 | 0.00 | 0.00 | 53 | 1023.0 |
| 20260906135104 | 73 | 149 | 6.0 | 10.0 | 0.00 | 0.00 | 0.00 | 54 | 1023.0 |
| 20260906134604 | 73 | 179 | 5.0 | 9.0 | 0.00 | 0.00 | 0.00 | 54 | 1023.0 |
| 20260906134105 | 73 | 128 | 5.0 | 9.0 | 0.00 | 0.00 | 0.00 | 55 | 1023.0 |
| 20260906132105 | 71 | 138 | 5.0 | 10.0 | 0.00 | 0.00 | 0.00 | 57 | 1023.2 |
| 20260906131604 | 71 | 133 | 5.0 | 12.0 | 0.00 | 0.00 | 0.00 | 56 | 1023.3 |
| 20260906131105 | 71 | 149 | 5.0 | 12.0 | 0.00 | 0.00 | 0.00 | 57 | 1023.5 |
| 20260906130104 | 72 | 142 | 6.0 | 10.0 | 0.00 | 0.00 | 0.00 | 56 | 1023.5 |
| 20260906125105 | 71 | 159 | 2.0 | 7.0 | 0.00 | 0.00 | 0.00 | 56 | 1023.7 |
| 20260906124604 | 71 | 171 | 3.0 | 7.0 | 0.00 | 0.00 | 0.00 | 56 | 1023.8 |
| 20260906124105 | 71 | 149 | 3.0 | 10.0 | 0.00 | 0.00 | 0.00 | 57 | 1024.0 |
| 20260906123604 | 71 | 192 | 5.0 | 10.0 | 0.00 | 0.00 | 0.00 | 55 | 1024.0 |
| 20260906122604 | 71 | 141 | 3.0 | 8.0 | 0.00 | 0.00 | 0.00 | 57 | 1023.9 |
| 20260906121605 | 71 | 191 | 5.0 | 12.0 | 0.00 | 0.00 | 0.00 | 56 | 1024.0 |
| 20260906121104 | 71 | 116 | 3.0 | 12.0 | 0.00 | 0.00 | 0.00 | 56 | 1024.0 |
| 20260906110104 | 69 | 158 | 4.0 | 7.0 | 0.00 | 0.00 | 0.00 | 60 | 1024.6 |
| 20260906104604 | 69 | 142 | 6.0 | 10.0 | 0.00 | 0.00 | 0.00 | 61 | 1024.8 |
| 20260906104104 | 69 | 181 | 6.0 | 10.0 | 0.00 | 0.00 | 0.00 | 60 | 1025.0 |
| 20260906103105 | 68 | 173 | 6.0 | 10.0 | 0.00 | 0.00 | 0.00 | 62 | 1025.1 |
| 20260906102604 | 68 | 131 | 5.0 | 9.0 | 0.00 | 0.00 | 0.00 | 63 | 1025.1 |
| 20260906102105 | 68 | 192 | 4.0 | 9.0 | 0.00 | 0.00 | 0.00 | 63 | 1025.1 |
| 20260906101104 | 68 | 171 | 5.0 | 10.0 | 0.00 | 0.00 | 0.00 | 63 | 1025.4 |
| 20260906100104 | 68 | 165 | 4.0 | 12.0 | 0.00 | 0.00 | 0.00 | 62 | 1025.4 |
| 20260906095604 | 69 | 160 | 6.0 | 10.0 | 0.00 | 0.00 | 0.00 | 62 | 1025.5 |
| 20260906095104 | 68 | 213 | 4.0 | 9.0 | 0.00 | 0.00 | 0.00 | 64 | 1025.4 |
| 20260906094105 | 68 | 118 | 3.0 | 10.0 | 0.00 | 0.00 | 0.00 | 65 | 1025.5 |
| 20260906093105 | 67 | 150 | 5.0 | 10.0 | 0.00 | 0.00 | 0.00 | 64 | 1025.6 |
| 20260906092603 | 67 | 163 | 6.0 | 12.0 | 0.00 | 0.00 | 0.00 | 64 | 1025.6 |
| 20260906092105 | 67 | 177 | 6.0 | 10.0 | 0.00 | 0.00 | 0.00 | 65 | 1025.7 |
| 20260906090103 | 67 | 191 | 4.0 | 7.0 | 0.00 | 0.00 | 0.00 | 68 | 1025.9 |
| 20260906082606 | 65 | 166 | 5.0 | 10.0 | 0.00 | 0.00 | 0.00 | 70 | 1026.1 |
| 20260906082104 | 65 | 186 | 3.0 | 8.0 | 0.00 | 0.00 | 0.00 | 73 | 1026.1 |
| 20260906081604 | 65 | 183 | 3.0 | 9.0 | 0.00 | 0.00 | 0.00 | 72 | 1026.1 |
| 20260906081104 | 64 | 160 | 3.0 | 12.0 | 0.00 | 0.00 | 0.00 | 73 | 1026.1 |
| 20260906065603 | 61 | 196 | 1.0 | 3.0 | 0.00 | 0.00 | 0.00 | 82 | 1026.2 |
| 20260906065104 | 61 | 196 | 2.0 | 6.0 | 0.00 | 0.00 | 0.00 | 83 | 1026.2 |
| 20260906064104 | 60 | 195 | 2.0 | 5.0 | 0.00 | 0.00 | 0.00 | 83 | 1026.1 |
| 20260906063604 | 60 | 197 | 2.0 | 5.0 | 0.00 | 0.00 | 0.00 | 83 | 1026.1 |
| 20260906063105 | 60 | 197 | 3.0 | 5.0 | 0.00 | 0.00 | 0.00 | 84 | 1026.1 |
| 20260906062603 | 59 | 198 | 1.0 | 5.0 | 0.00 | 0.00 | 0.00 | 85 | 1026.1 |
| 20260906062104 | 59 | 199 | 2.0 | 3.0 | 0.00 | 0.00 | 0.00 | 85 | 1026.1 |
| 20260906060103 | 58 | 200 | 2.0 | 3.0 | 0.00 | 0.00 | 0.00 | 88 | 1025.9 |
| 20260906055606 | 58 | 200 | 2.0 | 3.0 | 0.00 | 0.00 | 0.00 | 88 | 1025.9 |
| 20260906055105 | 57 | 200 | 2.0 | 3.0 | 0.00 | 0.00 | 0.00 | 89 | 1025.8 |
| 20260906054603 | 57 | 200 | 2.0 | 3.0 | 0.00 | 0.00 | 0.00 | 89 | 1025.8 |
| 20260906054104 | 57 | 200 | 1.0 | 3.0 | 0.00 | 0.00 | 0.00 | 89 | 1025.9 |
| 20260906051604 | 57 | 200 | 2.0 | 3.0 | 0.00 | 0.00 | 0.00 | 88 | 1025.8 |
| 20260906051105 | 57 | 200 | 2.0 | 3.0 | 0.00 | 0.00 | 0.00 | 88 | 1025.8 |
| 20260906044104 | 57 | 200 | 2.0 | 3.0 | 0.00 | 0.00 | 0.00 | 87 | 1025.6 |
| 20260906043604 | 57 | 200 | 2.0 | 3.0 | 0.00 | 0.00 | 0.00 | 87 | 1025.6 |
| 20260906043104 | 57 | 200 | 1.0 | 3.0 | 0.00 | 0.00 | 0.00 | 87 | 1025.6 |
| 20260906042603 | 57 | 200 | 2.0 | 3.0 | 0.00 | 0.00 | 0.00 | 87 | 1025.9 |
| 20260906035603 | 57 | 201 | 2.0 | 3.0 | 0.00 | 0.00 | 0.00 | 87 | 1025.9 |
| 20260906035104 | 57 | 201 | 2.0 | 3.0 | 0.00 | 0.00 | 0.00 | 87 | 1026.1 |
| 20260906034603 | 57 | 201 | 3.0 | 5.0 | 0.00 | 0.00 | 0.00 | 88 | 1026.1 |
| 20260906034104 | 57 | 301 | 2.0 | 5.0 | 0.00 | 0.00 | 0.00 | 88 | 1026.1 |
| 20260906032103 | 57 | 303 | 0.0 | 1.0 | 0.00 | 0.00 | 0.00 | 88 | 1026.1 |
| 20260906031603 | 57 | 303 | 0.0 | 3.0 | 0.00 | 0.00 | 0.00 | 88 | 1026.1 |
| 20260906031103 | 57 | 303 | 1.0 | 3.0 | 0.00 | 0.00 | 0.00 | 88 | 1026.2 |
| 20260906025603 | 57 | 303 | 1.0 | 3.0 | 0.00 | 0.00 | 0.00 | 88 | 1026.2 |
| 20260906025103 | 57 | 303 | 1.0 | 2.0 | 0.00 | 0.00 | 0.00 | 88 | 1026.2 |
| 20260906024603 | 57 | 303 | 0.0 | 3.0 | 0.00 | 0.00 | 0.00 | 88 | 1026.2 |
| 20260906024103 | 57 | 303 | 1.0 | 3.0 | 0.00 | 0.00 | 0.00 | 88 | 1026.5 |
| 20260906022104 | 57 | 303 | 1.0 | 3.0 | 0.00 | 0.00 | 0.00 | 89 | 1026.7 |
| 20260906021603 | 57 | 303 | 0.0 | 3.0 | 0.00 | 0.00 | 0.00 | 89 | 1026.7 |
| 20260906015603 | 57 | 303 | 0.0 | 0.0 | 0.00 | 0.00 | 0.00 | 89 | 1026.7 |
| 20260906015104 | 57 | 303 | 0.0 | 0.0 | 0.00 | 0.00 | 0.00 | 89 | 1026.7 |
| 20260906014603 | 57 | 303 | 0.0 | 0.0 | 0.00 | 0.00 | 0.00 | 89 | 1026.7 |
| 20260906014104 | 57 | 303 | 0.0 | 0.0 | 0.00 | 0.00 | 0.00 | 89 | 1026.6 |
| 20260906013603 | 57 | 303 | 0.0 | 0.0 | 0.00 | 0.00 | 0.00 | 88 | 1026.6 |
| 20260906013104 | 57 | 303 | 0.0 | 2.0 | 0.00 | 0.00 | 0.00 | 88 | 1026.5 |
| 20260906012603 | 57 | 303 | 0.0 | 2.0 | 0.00 | 0.00 | 0.00 | 89 | 1026.6 |
| 20260906005603 | 57 | 303 | 1.0 | 2.0 | 0.00 | 0.00 | 0.00 | 89 | 1026.7 |
| 20260906003104 | 58 | 303 | 0.0 | 0.0 | 0.00 | 0.00 | 0.00 | 89 | 1026.6 |
| 20260906002603 | 58 | 303 | 0.0 | 0.0 | 0.00 | 0.00 | 0.00 | 89 | 1026.6 |
| 20260906001104 | 58 | 303 | 0.0 | 2.0 | 0.00 | 0.00 | 0.00 | 88 | 1026.6 |
| 20260905233104 | 58 | 303 | 0.0 | 2.0 | 0.00 | 0.00 | 0.00 | 88 | 1026.5 |
| 20260905232603 | 58 | 303 | 0.0 | 1.0 | 0.00 | 0.00 | 0.00 | 88 | 1026.5 |
| 20260905231104 | 58 | 303 | 1.0 | 2.0 | 0.00 | 0.00 | 0.00 | 88 | 1026.6 |
| 20260905221602 | 58 | 303 | 0.0 | 1.0 | 0.00 | 0.00 | 0.00 | 87 | 1026.2 |
| 20260905221104 | 58 | 303 | 0.0 | 2.0 | 0.00 | 0.00 | 0.00 | 87 | 1026.1 |
| 20260905213602 | 58 | 303 | 0.0 | 0.0 | 0.00 | 0.00 | 0.00 | 87 | 1026.0 |
| 20260905213103 | 58 | 303 | 0.0 | 0.0 | 0.00 | 0.00 | 0.00 | 86 | 1026.1 |
| 20260905212602 | 59 | 303 | 0.0 | 0.0 | 0.00 | 0.00 | 0.00 | 86 | 1026.1 |
| 20260905212103 | 59 | 303 | 0.0 | 0.0 | 0.00 | 0.00 | 0.00 | 86 | 1026.1 |
| 20260905204602 | 60 | 303 | 0.0 | 0.0 | 0.00 | 0.00 | 0.00 | 84 | 1025.9 |
| 20260905204103 | 60 | 303 | 0.0 | 0.0 | 0.00 | 0.00 | 0.00 | 84 | 1025.9 |
| 20260905203103 | 60 | 303 | 0.0 | 0.0 | 0.00 | 0.00 | 0.00 | 84 | 1026.0 |
| 20260905202603 | 60 | 303 | 0.0 | 0.0 | 0.00 | 0.00 | 0.00 | 84 | 1026.0 |
| 20260905202103 | 60 | 303 | 0.0 | 0.0 | 0.00 | 0.00 | 0.00 | 83 | 1025.9 |